Epoch 2024 Mar. 31.0 TT = JDT 2460400.5
T 2024 Feb. 26.24115 TT Rudenko
q 1.4057864 (2000.0) P Q
n 0.04380493 Peri. 42.91694 +0.53774767 -0.78150758
a 7.9699216 Node 22.18450 +0.34263126 -0.14026141
e 0.8236135 Incl. 56.90812 +0.77034490 +0.60792486
P 22.5
>From 510 observations 2001 Aug. 18-2024 Mar. 16, mean residual 0".8.